This is the latest recevied weather packets stored in our database for station/object DB0SMU-12. If no packets are shown the sender has not sent any weather packets the latest 1 day(s).
| Time | Temp. | Humidity | Pressure | Rain* | Wind** | Luminosity | Snow |
|---|---|---|---|---|---|---|---|
| 1777998919 | 16.11° C | 57% | 1008.5 hPa | 0 mm | 2.68 m/s, 281° | - | - |
| 1777998737 | 16.11° C | 58% | 1008.5 hPa | 0 mm | 2.68 m/s, 280° | - | - |
| 1777998557 | 16.11° C | 59% | 1008.5 hPa | 0 mm | 3.58 m/s, 257° | - | - |
| 1777998376 | 16.11° C | 60% | 1008.7 hPa | 0 mm | 3.13 m/s, 256° | - | - |
| 1777998195 | 16.11° C | 60% | 1008.6 hPa | 0 mm | 2.68 m/s, 275° | - | - |
| 1777998014 | 16.67° C | 58% | 1008.6 hPa | 0 mm | 2.68 m/s, 296° | - | - |
| 1777997833 | 16.67° C | 58% | 1008.5 hPa | 0 mm | 2.24 m/s, 302° | - | - |
| 1777997652 | 16.67° C | 57% | 1008.4 hPa | 0 mm | 1.79 m/s, 311° | - | - |
| 1777997472 | 16.67° C | 57% | 1008.5 hPa | 0 mm | 2.24 m/s, 300° | - | - |
| 1777997291 | 16.67° C | 56% | 1008.4 hPa | 0 mm | 1.79 m/s, 308° | - | - |
| 1777997110 | 16.67° C | 56% | 1008.3 hPa | 0 mm | 2.68 m/s, 315° | - | - |
| 1777996929 | 16.67° C | 55% | 1008.3 hPa | 0 mm | 2.24 m/s, 307° | - | - |
| 1777996748 | 17.22° C | 56% | 1008.4 hPa | 0 mm | 2.68 m/s, 306° | - | - |
| 1777996567 | 17.22° C | 55% | 1008.3 hPa | 0 mm | 2.24 m/s, 294° | - | - |
| 1777996386 | 17.22° C | 54% | 1008.3 hPa | 0 mm | 2.68 m/s, 308° | - | - |
| 1777996205 | 17.22° C | 54% | 1008.3 hPa | 0 mm | 2.68 m/s, 296° | - | - |
| 1777996024 | 16.67° C | 55% | 1008.3 hPa | 0 mm | 2.68 m/s, 303° | - | - |
| 1777995843 | 17.22° C | 54% | 1008.3 hPa | 0 mm | 3.13 m/s, 309° | - | - |
| 1777995662 | 17.22° C | 53% | 1008.3 hPa | 0 mm | 3.13 m/s, 308° | - | - |
| 1777995481 | 17.22° C | 53% | 1008.1 hPa | 0 mm | 3.13 m/s, 307° | - | - |
| 1777995300 | 17.22° C | 53% | 1008.2 hPa | 0 mm | 3.13 m/s, 309° | - | - |
| 1777995119 | 17.22° C | 54% | 1008.2 hPa | 0 mm | 3.58 m/s, 311° | - | - |
| 1777994938 | 17.78° C | 53% | 1008.3 hPa | 0 mm | 3.13 m/s, 304° | - | - |
| 1777994758 | 17.78° C | 53% | 1008.2 hPa | 0 mm | 3.13 m/s, 307° | - | - |
| 1777994577 | 17.78° C | 51% | 1008.3 hPa | 0 mm | 3.58 m/s, 307° | - | - |
* Rain latest hour (hover to see other rain measurements)
** Current wind speed in m/s (hover to see current wind gust speed)